Location: Arboyeti
(42.1122°N, 44.6017°E)
Time: 22:10:43
(UTC+00:00)

N. Korean satellite - Pass Details

Date: 03 October 2021
Orbit: 450 x 494 km, 97.3° (Epoch: 28 October)

Event Time Altitude Azimuth Distance (km) Brightness Sun altitude
Rises 01:20:24 0° 31° (NNE) 2,560 10.9 -19.3°
Reaches altitude 10° 01:23:09 10° 55° (NE) 1,682 10.3 -18.8°
Maximum altitude 01:25:22 15° 93° (E) 1,377 9.9 -18.4°
Drops below altitude 10° 01:27:36 10° 131° (SE) 1,684 9.8 -18.0°
Sets 01:30:21 0° 154° (SSE) 2,565 10.4 -17.5°
